Location: Jackson
(42.2460°N, 84.4010°W)
Time: 10:46:08
(UTC-04:00)

Injun/Solrad 3 - Pass Details

Date: 17 February 2026
Orbit: 871 x 985 km, 66.8° (Epoch: 16 March)

Event Time Altitude Azimuth Distance (km) Brightness Sun altitude
Rises 20:01:07 0° 333° (NNW) 3,569 11.4 -20.7°
Reaches altitude 10° 20:03:45 10° 340° (NNW) 2,641 10.5 -21.1°
Maximum altitude 20:09:38 45° 52° (NE) 1,273 8.3 -22.2°
Enters shadow 20:10:27 43° 74° (ENE) 1,316 8.2 -22.4°
